KM4NDI Weather Reports


Display with metric or nautical units.
time (UTC)temp
F
wind
direction
speed
MPH
gust
MPH
rain 1hr
in
rain 24hr
in
rain mn
in
humidity
%
barometer
mb
20260906092528 74 0.0 0.0 0.04 0.18 0.18 99 1014.7
20260906091532 74 0.0 0.0 0.03 0.17 0.17 99 1014.3
20260906090517 74 0.0 0.0 0.02 0.16 0.16 99 1014.1
20260906085540 74 0.0 0.0 0.02 0.16 0.16 99 1014.1
20260906084523 74 0.0 0.0 0.00 0.14 0.14 99 1014.1
20260906083526 74 0.0 0.0 0.00 0.14 0.14 99 1014.1
20260906082529 74 0.0 0.0 0.08 0.14 0.14 99 1014.0
20260906081532 74 0.0 0.0 0.13 0.14 0.14 97 1014.0
20260906080517 75 0.0 0.0 0.13 0.14 0.14 96 1014.1
20260906075520 75 293 0.0 3.0 0.13 0.14 0.14 96 1014.3
20260906074523 76 174 1.0 3.0 0.13 0.14 0.14 96 1014.5
20260906073527 76 144 2.0 5.0 0.13 0.14 0.14 99 1014.8
20260906072530 77 0.0 0.0 0.05 0.06 0.06 99 1014.8
20260906071515 77 0.0 0.0 0.00 0.01 0.01 99 1014.5
20260906070538 77 0.0 0.0 0.00 0.01 0.01 99 1014.3
20260906065541 77 0.0 0.0 0.00 0.01 0.01 99 1014.1
20260906064519 77 0.0 0.0 0.00 0.01 0.01 99 1013.8
20260906063515 77 0.0 0.0 0.00 0.01 0.01 99 1013.8
20260906062530 77 0.0 0.0 0.00 0.01 0.01 98 1013.8
20260906061516 77 0.0 0.0 0.00 0.01 0.01 98 1013.8
20260906060519 77 0.0 0.0 0.00 0.01 0.01 98 1013.8
20260906055522 78 0.0 0.0 0.01 0.01 0.01 98 1013.8
20260906054525 78 0.0 0.0 0.01 0.01 0.01 99 1014.1
20260906053548 78 0.0 0.0 0.01 0.01 0.01 99 1014.3
20260906052531 78 0.0 0.0 0.01 0.01 0.01 99 1014.5
20260906051517 78 0.0 0.0 0.01 0.01 0.01 98 1014.5
20260906050540 78 0.0 0.0 0.01 0.01 0.01 98 1014.6
20260906045523 78 0.0 0.0 0.00 0.00 0.00 98 1014.8
20260906044526 79 0.0 0.0 0.00 0.00 0.00 98 1014.7
20260906043549 79 0.0 0.0 0.00 0.00 0.00 98 1014.6
20260906042533 79 0.0 0.0 0.00 0.00 0.00 97 1014.6
20260906041518 79 0.0 0.0 0.00 0.00 0.00 96 1014.6
20260906040521 79 0.0 0.0 0.00 0.00 0.00 96 1014.7
20260906035524 79 0.0 0.0 0.00 0.00 0.00 94 1014.8
20260906034527 80 0.0 0.0 0.00 0.00 0.00 90 1014.8
20260906033524 80 0.0 0.0 0.00 0.00 0.00 89 1015.0
20260906032515 80 0.0 0.0 0.00 0.00 0.00 89 1014.3
20260906031518 80 0.0 0.0 0.00 0.00 0.00 88 1014.3
20260906030515 80 0.0 0.0 0.00 0.00 0.00 88 1014.2
20260906025525 80 0.0 0.0 0.00 0.00 0.00 87 1014.1
20260906024547 81 0.0 0.0 0.00 0.00 0.00 86 1014.0
20260906023531 81 0.0 0.0 0.00 0.00 0.00 86 1014.1
20260906022516 81 0.0 0.0 0.00 0.00 0.00 85 1014.1
20260906021519 81 0.0 0.0 0.00 0.00 0.00 84 1014.1
20260906020522 82 0.0 0.0 0.00 0.00 0.00 84 1014.0
20260906015525 82 0.0 0.0 0.00 0.00 0.00 82 1013.8
20260906014528 83 0.0 0.0 0.00 0.00 0.00 80 1013.6
20260906013531 84 0.0 0.0 0.00 0.00 0.00 78 1013.3
20260906012536 84 0.0 0.0 0.00 0.00 0.00 76 1012.9
20260906011519 85 0.0 0.0 0.00 0.00 0.00 75 1012.8
20260906010543 85 315 0.0 2.0 0.00 0.00 0.00 72 1012.7
20260906005526 86 225 0.0 3.0 0.00 0.00 0.00 72 1012.6
20260906004529 86 45 0.0 2.0 0.00 0.00 0.00 71 1012.6
20260906003552 86 0.0 0.0 0.00 0.00 0.00 71 1012.6
20260906002517 87 0.0 0.0 0.00 0.00 0.00 68 1012.3
20260906001540 87 225 0.0 2.0 0.00 0.00 0.00 68 1012.3
20260906000523 88 0.0 0.0 0.00 0.00 0.00 64 1012.3
20260905235541 89 0.0 0.0 0.00 0.00 0.00 63 1012.3
20260905234518 91 0.0 0.0 0.00 0.00 0.00 58 1012.6
20260905233515 92 0.0 0.0 0.00 0.00 0.00 55 1012.4
20260905232518 94 0.0 0.0 0.00 0.00 0.00 53 1012.4
20260905231541 95 0.0 0.0 0.00 0.00 0.00 51 1012.4
20260905230525 96 0.0 0.0 0.00 0.00 0.00 50 1012.4
20260905225528 97 0.0 0.0 0.00 0.00 0.00 48 1012.3
20260905224531 98 0.0 0.0 0.00 0.00 0.00 47 1012.3
20260905223516 100 0.0 0.0 0.00 0.00 0.00 44 1012.2
20260905222520 101 0.0 0.0 0.00 0.00 0.00 43 1012.2
20260905221522 100 0.0 0.0 0.00 0.00 0.00 44 1012.2
20260905220525 97 0.0 0.0 0.00 0.00 0.00 48 1012.2
20260905215529 98 121 0.0 3.0 0.00 0.00 0.00 48 1012.2
20260905214532 98 240 0.0 3.0 0.00 0.00 0.00 49 1012.3
20260905213516 98 68 0.0 2.0 0.00 0.00 0.00 48 1012.4
20260905212520 100 225 1.0 4.0 0.00 0.00 0.00 43 1012.6
20260905211523 100 0.0 2.0 0.00 0.00 0.00 45 1012.6
20260905210526 99 0.0 0.0 0.00 0.00 0.00 44 1012.6
20260905205549 100 0.0 0.0 0.00 0.00 0.00 46 1012.6
20260905204526 100 189 1.0 3.0 0.00 0.00 0.00 44 1012.7
20260905203517 97 0.0 0.0 0.00 0.00 0.00 48 1012.9
20260905202540 101 132 2.0 4.0 0.00 0.00 0.00 44 1012.9
20260905201538 100 0.0 0.0 0.00 0.00 0.00 45 1013.0
20260905200515 99 0.0 0.0 0.00 0.00 0.00 45 1013.1
20260905195530 100 135 1.0 3.0 0.00 0.00 0.00 45 1013.1
20260905194515 101 225 1.0 5.0 0.00 0.00 0.00 45 1013.3
20260905193518 100 203 0.0 3.0 0.00 0.00 0.00 46 1013.6
20260905192522 99 0.0 0.0 0.00 0.00 0.00 47 1013.8
20260905191524 99 124 1.0 4.0 0.00 0.00 0.00 47 1013.8
20260905190527 100 180 0.0 3.0 0.00 0.00 0.00 44 1013.9
20260905185531 99 134 2.0 4.0 0.00 0.00 0.00 48 1014.0
20260905184536 101 0.0 0.0 0.00 0.00 0.00 43 1014.1
20260905183519 101 210 1.0 5.0 0.00 0.00 0.00 46 1014.3
20260905182522 100 216 1.0 3.0 0.00 0.00 0.00 48 1014.6
20260905181545 97 172 1.0 2.0 0.00 0.00 0.00 50 1014.7
20260905180528 101 164 1.0 3.0 0.00 0.00 0.00 45 1014.8
20260905175531 99 218 1.0 5.0 0.00 0.00 0.00 48 1014.8
20260905174517 100 253 1.0 4.0 0.00 0.00 0.00 47 1015.3
20260905173519 98 0.0 2.0 0.00 0.00 0.00 51 1015.3
20260905172523 98 160 2.0 4.0 0.00 0.00 0.00 49 1015.3
20260905171526 98 226 1.0 2.0 0.00 0.00 0.00 50 1015.4
20260905170523 97 139 1.0 3.0 0.00 0.00 0.00 50 1015.6
20260905165520 97 184 1.0 4.0 0.00 0.00 0.00 50 1015.7
20260905164517 96 0.0 0.0 0.00 0.00 0.00 52 1015.8
20260905163520 98 180 1.0 3.0 0.00 0.00 0.00 54 1015.9
20260905162523 96 180 0.0 3.0 0.00 0.00 0.00 56 1015.8
20260905161527 96 0.0 2.0 0.00 0.00 0.00 54 1015.8
20260905160530 95 0.0 0.0 0.00 0.00 0.00 56 1016.0
20260905155515 94 214 1.0 3.0 0.00 0.00 0.00 57 1016.1
20260905154518 93 203 0.0 2.0 0.00 0.00 0.00 58 1016.0
20260905153521 93 233 1.0 3.0 0.00 0.00 0.00 59 1016.0
20260905152524 91 0.0 0.0 0.00 0.00 0.00 62 1016.2
20260905151527 91 263 1.0 3.0 0.00 0.00 0.00 63 1016.2
20260905150530 89 0.0 0.0 0.00 0.00 0.00 69 1016.2
20260905145516 89 0.0 0.0 0.00 0.00 0.00 68 1016.2
20260905144519 88 0.0 0.0 0.00 0.00 0.00 70 1016.3
20260905143542 87 0.0 0.0 0.00 0.00 0.00 72 1016.3
20260905142525 85 0.0 0.0 0.00 0.00 0.00 75 1016.3
20260905141528 84 0.0 0.0 0.00 0.00 0.00 77 1016.5
20260905140611 83 0.0 0.0 0.00 0.00 0.00 82 1016.5
20260905135516 82 0.0 0.0 0.00 0.00 0.00 84 1016.6
20260905134520 80 0.0 0.0 0.00 0.00 0.00 90 1016.6
20260905133523 79 0.0 0.0 0.00 0.00 0.00 92 1016.7
20260905132540 78 0.0 0.0 0.00 0.00 0.00 96 1016.7
20260905131617 76 0.0 0.0 0.00 0.00 0.00 98 1016.8
20260905130552 75 0.0 0.0 0.00 0.00 0.00 99 1016.8
20260905125517 74 0.0 0.0 0.00 0.00 0.00 99 1016.7
20260905124620 73 0.0 0.0 0.00 0.00 0.00 99 1016.6
20260905123603 72 0.0 0.0 0.00 0.00 0.00 99 1016.6
20260905122526 72 0.0 0.0 0.00 0.00 0.00 99 1016.5
20260905121530 71 0.0 0.0 0.00 0.00 0.00 99 1016.5
20260905120533 71 0.0 0.0 0.00 0.00 0.00 99 1016.5
20260905115518 71 0.0 0.0 0.00 0.00 0.00 99 1016.3
20260905114521 71 0.0 0.0 0.00 0.00 0.00 99 1016.2
20260905113524 71 0.0 0.0 0.00 0.00 0.00 99 1016.2
20260905112527 71 0.0 0.0 0.00 0.00 0.00 99 1016.1
20260905111530 71 0.0 0.0 0.00 0.00 0.00 99 1016.0
20260905110515 71 0.0 0.0 0.00 0.00 0.00 99 1016.0
20260905105518 71 0.0 0.0 0.00 0.00 0.00 99 1016.0
20260905104522 71 0.0 0.0 0.00 0.00 0.00 99 1016.0
20260905103545 71 0.0 0.0 0.00 0.00 0.00 99 1015.9
20260905102608 71 0.0 0.0 0.00 0.00 0.00 99 1015.8
20260905101525 71 0.0 0.0 0.00 0.00 0.00 99 1015.7
20260905100536 71 0.0 0.0 0.00 0.00 0.00 99 1015.7
20260905095519 72 0.0 0.0 0.00 0.00 0.00 99 1015.7
20260905094536 72 0.0 0.0 0.00 0.00 0.00 99 1015.7
20260905093606 72 0.0 0.0 0.00 0.00 0.00 99 1015.7